Terminal Aerodrome Forecast
Issued by NWS Bismarck, ND

Home | Current Version | Previous Version | Graphics & Text | Print | Product List | Glossary On
Versions: 1 2 3 4 5 6 7 8 9 10 11 12 13 14
000
FTUS43 KBIS 230315 AAA
TAFISN
TAF AMD
KISN 230315Z 2303/2324 08008KT P6SM OVC025
      TEMPO 2303/2306 SCT025 OVC035
     FM230600 06012KT P6SM VCSH OVC015
     FM230900 08012G20KT P6SM -RASN BKN008 OVC012
     FM231700 11016G22KT P6SM OVC015=

USA.gov is the U.S. government's official web portal to all federal, state and local government web resources and services.